Flag for Mexico Weather past 2 weeks in Cancún, Quintana Roo, Mexico

Now
75 °F

Partly cloudy.


Feels Like: 73 °F
Forecast: 82 / 89 °F
Wind: 3 mph from Southeast

Location: Cozumel Civ / Mil

Current Time: Aug 27, 2014 at 10:10:22 PM

Latest Report: Aug 27, 2014 at 9:45 PM


Visibility: 7 mi

Pressure: 29.94 "Hg

Humidity: 100%

Dew point: 75 °F

Location of CancúnLocation

Historic Weather in Cancún — Graph

°F

Cancún temperature yesterday

Maximum temperature yesterday: 91 °F (at 2:51 PM)
Minimum temperature yesterday: 73 °F (at 5:45 PM)
Average temperature yesterday: 79 °F

Past Weeks' High & Low Weather Summary

 TemperatureHumidityPressure
High97 °F (Aug 20, 10:46 AM)100% (Aug 12, 10:47 PM)30.09 "Hg (Aug 12, 10:47 PM)
Low70 °F (Aug 14, 3:42 AM)52% (Aug 27, 3:55 PM)29.78 "Hg (Aug 25, 6:51 PM)
Average80 °F86%29.96 "Hg
* Reported Aug 12 8:45 PM — Aug 27 8:48 PM, Cancún, Weather by CustomWeather, © 2014

Note: Actual official high and low records may vary slightly from our data, if they occured in-between our weather recording intervals... More about our weather records

Advertising

Cancún weather history for previous 24 hours

 ConditionsComfort  
Time TempWeatherWind HumidityBarometerVisibility
8:48 PM
Aug 27
75 °FPartly cloudy.No wind100%29.99 "Hg7 mi
7:54 PM77 °FBroken clouds.No wind94%29.88 "Hg7 mi
6:42 PM84 °FBroken clouds.9 mph84%29.84 "Hg8 mi
5:46 PM86 °FBroken clouds.3 mph70%29.84 "Hg8 mi
4:45 PM88 °FPassing clouds.5 mph59%29.83 "Hg8 mi
3:55 PM91 °FScattered clouds.6 mph52%29.85 "Hg8 mi
2:44 PM88 °FScattered clouds.6 mph59%29.85 "Hg8 mi
1:41 PM88 °FBroken clouds.5 mph55%29.87 "Hg8 mi
12:52 PM86 °FBroken clouds.8 mph70%29.85 "Hg8 mi
11:46 AM82 °FBroken clouds.8 mph84%29.91 "Hg8 mi
10:41 AM81 °FBroken clouds.6 mph89%29.91 "Hg8 mi
9:40 AM81 °FBroken clouds.7 mph94%29.93 "Hg8 mi
8:40 AM79 °FBroken clouds.5 mph94%29.89 "Hg8 mi
7:44 AM77 °FPartly sunny.6 mph100%29.87 "Hg8 mi
6:41 AM75 °FPassing clouds.5 mph100%29.83 "Hg7 mi
5:46 AM75 °FPassing clouds.No wind100%29.85 "Hg7 mi
4:43 AM75 °FPassing clouds.3 mph100%29.83 "Hg7 mi
3:48 AM75 °FPassing clouds.3 mph100%29.86 "Hg7 mi
2:46 AM75 °FPassing clouds.3 mph100%29.85 "Hg7 mi
1:49 AM73 °FPassing clouds.No wind100%29.86 "Hg7 mi
12:51 AM75 °FPassing clouds.No wind100%29.84 "Hg7 mi
11:49 PM
Aug 26
75 °FPassing clouds.No wind100%29.88 "Hg7 mi
10:46 PM75 °FPassing clouds.No wind100%29.89 "Hg7 mi
Weather by CustomWeather, © 2014

See weather overviewHow to use our weather pages